Location: Orinda
(37.8771°N, 122.1797°W)
Time: 21:51:59
(UTC+00:00)

USA 238 - Pass Details

Date: 21 October 2019
Orbit: 1026 x 1186 km, 63.4° (Epoch: 11 November)

Event Time Altitude Azimuth Distance (km) Brightness Sun altitude
Exits shadow 12:23:25 40° 232° (SW) 1,659 4.3 -24.3°
Drops below altitude 10° 12:29:29 10° 180° (S) 3,095 6.1 -23.1°
Sets 12:32:23 0° 173° (S) 4,060 6.8 -22.5°
